map of PUQ home
Great Circle Mapper logo
PUQ - Airport
Location
City:  Punta Arenas, Magallanes, Chile
Name:Presidente Carlos Ibáñez del Campo International Airport
ICAO / IATA:SCCI / PUQ

Details
Type:Airport (Aerodrome, Airfield)
Use:Public/Civil, Military, International (customs port of entry)
Latitude:53°00'10"S (-53.002641)
Longitude:70°51'17"W (-70.854585)
Datum:WGS 1984
Elevation:139 ft (42 m)
Runways:3
Longest:9154 × 148 ft (2790 × 45 m), paved

Time
Time Zone:UTC-4 (DST-3)
Local Time:

Weather
METAR:SCCI 180700Z 26008KT 9999 FEW030 01/M02 Q0998 NOSIG
TAF:SCCI 180445Z 1806/1906 24012KT 9999 FEW030 TN01/1810Z TX06/1817Z
BECMG 1808/1810 25018KT PROB40
TEMPO 1815/1821 27020G30KT 7000 SHRA -SHRASN BKN020
BECMG 1822/1900 24010KT

Related Locations
Nearby:
Farthest:UUD: 12323 mi / 19832 km
Ulan Ude [Mukhino], Buryatia, RU

Find:

   beyond  
but within

Other Information
Maps:
NOTAMs:
Links:
Sources:

  
flag of Chile
flag of Magallanes
  

Sectional Chart

Flight Planning
at skyvector.com

Satellite Image

Google Maps Satellite View

 

Copyright © 2004-2014 Karl L. Swartz. All rights reserved.
The Great Circle Mapper name and logo are trademarks of the Great Circle Mapper.
All other trademarks mentioned herein belong to their respective owners.
Please see credits for attibutions and further copyright information.

  Follow gcmap on Facebook Follow gcmap on Twitter

hCard Microformat

Geo Microformat